Wind_Speed
18 18 18 19 19 19 18 19 20 18 16 17 18 19 21 20 19 17 15 13 11 9 9 9 10 11 12 14 16 17 19 20 21 22 23 24 26 28 29 30 32 33
16 15 16 17 18 18 17 18 19 17 16 18 19 19 19 18 16 14 12 11 10 9 9 10 11 12 14 16 17 19 20 21 22 23 24 26 27 29 30 31 32 33
14 13 14 16 16 17 16 16 17 16 17 19 20 18 16 14 12 12 11 10 9 9 10 11 12 14 16 17 19 20 21 21 22 24 25 27 28 29 30 31 32 34
12 12 13 14 15 15 15 16 17 18 19 20 19 15 13 12 12 12 11 10 9 10 11 13 14 16 17 19 19 20 21 22 23 25 26 27 28 29 30 32 33 35
11 12 13 14 15 15 16 18 19 20 20 18 16 14 13 14 14 12 11 10 10 11 13 14 16 18 19 19 20 21 22 23 24 25 26 27 28 29 31 33 35 36
11 12 15 16 16 16 18 19 18 18 17 15 14 14 14 14 13 12 11 11 12 13 15 16 17 18 19 20 21 22 23 24 24 25 25 27 28 30 32 34 36 37
11 13 14 14 13 15 17 17 16 16 15 14 15 15 15 14 13 12 12 12 13 15 16 17 18 19 20 21 22 23 23 24 24 25 26 28 30 31 33 35 36 36
11 13 14 13 12 14 15 16 15 15 14 14 15 15 14 14 13 13 13 14 15 16 17 18 19 20 20 21 22 23 23 23 24 25 27 29 31 32 34 35 36 36
12 13 14 14 13 14 15 16 16 15 15 16 16 15 15 14 14 14 14 15 16 17 18 19 20 21 21 22 22 22 22 23 25 26 28 30 31 33 34 35 36 36
12 13 13 13 14 15 17 18 17 17 18 18 17 16 16 15 15 15 15 16 18 19 20 20 21 21 22 22 22 22 23 24 26 27 29 31 32 33 35 35 36 35
12 12 13 14 15 17 18 19 19 19 19 19 18 17 17 16 16 17 18 19 19 20 20 20 21 21 21 21 21 22 23 25 27 28 30 31 33 34 35 35 35 35
12 12 13 14 16 18 19 20 19 19 19 19 19 19 18 18 18 19 19 20 20 20 20 20 21 21 21 21 21 23 24 26 28 29 31 32 33 34 35 35 35 35
13 13 13 14 16 17 19 19 20 20 21 20 20 20 19 19 19 20 20 20 20 20 20 20 21 21 20 21 22 23 25 27 28 30 31 33 33 34 34 34 34 34
14 14 14 14 15 17 18 19 19 20 21 21 21 20 20 20 20 20 20 20 20 20 20 21 21 20 20 21 22 24 26 27 29 30 32 33 33 33 33 33 33 33
15 16 16 16 16 17 18 18 19 19 20 21 22 22 21 21 21 21 20 20 21 21 21 22 21 21 21 22 23 25 26 28 29 31 32 32 33 33 33 32 32 33
16 17 17 17 17 18 18 18 18 19 20 21 23 24 24 23 22 22 21 22 22 22 22 22 21 21 21 22 24 26 27 28 30 31 31 32 32 32 32 31 31 33
17 18 18 18 18 19 19 18 18 19 20 21 23 24 25 25 24 23 23 24 24 24 23 23 22 22 22 24 25 26 28 29 30 31 31 31 32 31 31 30 31 32
19 19 19 20 20 20 20 19 20 20 20 21 22 24 25 26 26 26 26 26 26 25 24 24 23 23 23 25 26 27 28 29 30 30 30 31 31 30 30 30 31 33
22 22 22 22 22 21 21 21 21 22 22 22 23 24 26 27 27 28 28 28 27 26 26 25 24 24 24 25 27 27 28 28 29 29 30 30 30 29 29 30 32 33
24 24 24 24 23 22 22 22 22 23 24 25 25 25 27 28 29 30 30 29 28 28 27 26 25 25 25 26 27 27 28 28 28 29 29 29 29 28 29 30 31 32
26 26 26 25 24 23 23 23 23 24 25 26 27 27 29 30 32 32 31 30 30 29 29 28 26 25 26 26 27 27 27 27 28 28 28 28 28 28 29 30 31 32
27 27 27 27 26 25 24 24 24 26 27 27 27 29 31 33 34 34 33 33 32 31 30 28 26 26 26 26 26 26 27 27 27 27 27 27 27 28 29 30 30 31
28 29 29 29 29 27 26 25 26 27 28 27 27 29 32 34 36 37 37 36 34 31 29 27 26 26 26 25 26 26 26 27 27 26 26 26 26 27 28 29 30 30
30 30 31 30 29 28 27 26 26 27 28 29 29 29 31 34 38 40 40 37 34 30 27 26 25 25 25 24 25 26 26 26 26 25 25 25 26 27 28 29 29 30
30 30 31 31 30 29 27 26 27 28 30 30 30 30 31 33 39 43 42 36 31 28 27 25 24 23 23 24 25 25 26 25 25 24 25 25 25 27 27 28 29 29
30 29 30 31 30 29 26 25 27 29 29 29 28 28 29 30 35 39 38 31 27 27 25 23 22 22 23 24 24 25 25 24 24 24 24 24 25 26 27 28 28 29
Wind_Direction
235 233 233 236 235 231 229 229 235 246 250 248 247 241 235 230 223 221 223 224 230 238 247 258 266 274 281 285 288 288 289 290 292 295 298 301 304 306 308 308 309 309
233 233 235 236 233 228 227 232 239 241 240 243 244 236 229 226 221 219 222 224 232 242 253 262 269 276 280 282 283 285 288 291 294 297 300 303 305 306 307 308 309 310
229 234 237 234 229 227 231 236 234 232 234 235 235 230 227 224 220 219 221 228 238 250 260 267 273 277 278 280 283 286 290 294 297 299 301 303 305 305 307 308 310 312
228 231 229 225 222 223 231 234 228 227 228 229 229 229 226 221 219 221 225 235 247 258 266 271 274 276 278 281 286 290 294 296 298 299 301 303 304 306 308 311 313 315
223 223 220 218 219 224 230 228 223 222 223 225 227 224 221 220 222 226 232 242 254 262 268 271 274 277 281 286 290 293 295 296 297 298 301 303 306 309 312 315 318 319
206 214 214 212 215 220 224 221 219 221 223 223 222 219 220 223 226 232 240 249 258 264 269 273 277 281 285 289 291 292 293 294 296 299 302 306 310 314 317 320 321 321
198 209 208 209 213 218 221 221 222 222 220 218 218 219 221 225 231 239 247 255 262 268 272 277 280 284 287 288 289 290 292 294 297 301 306 311 316 319 321 322 322 323
213 216 214 220 224 221 221 223 223 220 216 217 218 221 225 231 238 246 254 262 267 271 275 278 281 283 285 287 288 289 292 296 301 307 312 317 319 321 322 323 324 325
229 227 226 229 226 219 218 219 219 216 216 219 221 225 231 238 245 252 259 265 269 272 275 278 280 282 284 286 287 290 295 301 307 312 316 319 321 322 323 324 326 327
233 232 231 227 221 218 219 220 220 218 219 222 225 230 236 242 249 256 261 265 269 271 274 277 279 282 284 285 288 293 300 306 311 315 319 321 322 323 324 326 327 328
232 232 231 227 223 221 224 226 226 225 226 228 231 235 239 245 251 257 261 265 268 271 274 277 280 281 283 285 291 298 304 310 314 318 320 321 322 324 325 326 328 328
233 232 231 232 231 230 233 235 235 235 235 237 239 240 243 249 254 259 262 265 268 271 274 277 279 280 282 288 295 302 308 313 316 319 320 321 323 324 326 327 328 328
238 237 237 238 240 242 244 245 245 244 244 244 245 245 248 253 257 261 264 266 269 271 274 276 277 279 283 291 299 305 311 314 317 319 320 321 323 325 326 327 327 328
242 244 246 247 249 250 252 253 253 252 251 251 249 249 252 258 262 264 265 266 268 271 273 274 275 278 285 294 302 307 311 315 317 318 319 321 323 325 326 326 327 328
245 247 252 255 255 255 256 257 258 258 258 256 253 253 257 262 265 266 265 266 268 271 273 273 274 280 288 296 303 308 312 315 316 317 319 321 323 325 325 326 327 327
249 250 253 258 259 259 259 260 261 260 260 259 257 257 259 263 266 267 266 267 269 271 272 271 274 281 290 298 304 309 312 314 315 317 319 321 323 324 324 325 325 325
253 253 254 258 260 262 263 262 262 261 260 260 259 259 261 263 266 267 267 268 270 271 271 271 275 282 291 299 304 308 311 313 314 316 319 321 323 323 323 323 323 323
254 254 254 256 259 261 263 264 264 263 263 263 263 263 263 264 266 267 267 268 269 271 271 271 275 283 291 298 303 307 310 311 313 316 319 321 321 321 321 321 322 322
254 254 254 255 256 259 262 264 265 267 268 268 268 267 266 266 266 267 267 267 269 271 271 272 275 282 290 296 301 305 308 310 313 316 319 320 319 319 319 320 321 321
255 255 255 255 256 258 260 263 265 267 270 271 271 271 270 269 267 267 266 266 267 269 270 271 275 281 288 293 299 303 307 310 314 316 318 318 317 317 318 319 320 321
255 255 255 255 256 257 258 261 263 265 267 269 271 273 272 270 267 266 265 263 263 266 268 269 273 279 285 291 297 302 307 310 313 315 316 316 316 316 317 319 320 321
256 256 256 256 256 257 258 260 262 264 266 269 273 275 275 272 266 263 262 261 260 263 267 270 273 278 283 290 297 303 307 310 313 314 314 314 314 315 317 319 319 321
256 256 256 257 258 259 260 261 263 265 268 272 276 279 279 276 269 262 259 258 257 261 267 270 273 277 283 290 297 302 307 310 311 312 312 312 313 315 317 318 319 320
256 256 257 258 260 261 260 261 264 267 271 275 278 281 283 279 272 264 257 254 255 260 267 271 274 278 284 291 297 302 306 308 309 310 310 310 312 315 316 317 318 320
256 256 256 258 261 261 261 264 268 271 275 277 280 284 284 279 272 263 255 251 255 261 268 272 274 279 286 292 298 301 304 306 307 308 308 309 312 314 315 316 317 319
255 255 255 258 261 262 262 268 273 274 277 279 281 283 281 280 275 264 253 251 258 264 268 271 274 281 288 293 298 301 304 305 305 305 306 308 311 313 314 315 316 319
Height
5796 5797 5797 5798 5800 5800 5801 5802 5802 5803 5805 5806 5807 5807 5807 5807 5807 5808 5809 5810 5811 5812 5812 5813 5813 5813 5813 5813 5813 5812 5812 5811 5810 5809 5808 5807 5805 5804 5803 5802 5800 5799
5794 5794 5795 5796 5798 5799 5799 5800 5801 5802 5803 5804 5805 5805 5805 5805 5806 5807 5808 5808 5809 5810 5810 5811 5811 5811 5811 5811 5811 5810 5809 5809 5808 5807 5805 5804 5803 5802 5801 5799 5798 5796
5792 5793 5794 5795 5796 5797 5798 5798 5799 5800 5802 5803 5803 5803 5804 5804 5805 5806 5806 5807 5808 5808 5809 5809 5809 5809 5809 5809 5808 5808 5807 5806 5805 5804 5803 5802 5801 5799 5798 5796 5794 5792
5791 5792 5793 5793 5794 5795 5796 5797 5798 5799 5800 5801 5802 5802 5802 5803 5804 5804 5805 5806 5806 5807 5807 5807 5807 5807 5807 5806 5806 5805 5804 5804 5803 5802 5801 5800 5798 5797 5795 5793 5791 5789
5789 5790 5792 5792 5793 5794 5795 5795 5796 5797 5799 5800 5800 5801 5801 5802 5803 5803 5804 5804 5805 5805 5805 5805 5805 5805 5804 5804 5804 5803 5802 5801 5800 5799 5798 5797 5795 5794 5792 5789 5787 5785
5788 5789 5790 5790 5791 5792 5793 5794 5795 5796 5797 5798 5799 5799 5800 5801 5801 5802 5802 5803 5803 5803 5803 5803 5803 5803 5802 5802 5801 5801 5800 5799 5798 5797 5796 5794 5792 5790 5788 5786 5784 5782
5787 5788 5789 5789 5790 5791 5792 5793 5794 5795 5796 5797 5798 5798 5799 5799 5800 5801 5801 5801 5801 5801 5801 5801 5801 5801 5800 5800 5799 5798 5798 5797 5796 5794 5793 5791 5789 5787 5785 5783 5781 5778
5786 5787 5788 5788 5789 5790 5790 5791 5792 5794 5795 5796 5796 5797 5797 5798 5798 5799 5799 5799 5799 5799 5799 5799 5799 5799 5798 5798 5797 5796 5796 5795 5793 5791 5789 5788 5786 5784 5782 5780 5777 5775
5785 5786 5786 5787 5788 5788 5789 5790 5791 5793 5794 5794 5795 5795 5796 5796 5796 5797 5797 5797 5797 5797 5797 5797 5797 5797 5796 5796 5795 5794 5793 5792 5790 5788 5786 5784 5783 5781 5779 5777 5774 5771
5784 5784 5785 5785 5786 5787 5788 5789 5790 5792 5792 5793 5793 5793 5794 5794 5794 5794 5795 5795 5795 5795 5795 5795 5795 5794 5794 5793 5793 5792 5790 5789 5787 5785 5783 5782 5780 5778 5776 5773 5771 5768
5782 5783 5784 5784 5785 5786 5787 5788 5789 5790 5791 5791 5791 5791 5791 5792 5792 5792 5793 5793 5793 5793 5793 5793 5792 5792 5792 5791 5790 5789 5788 5786 5784 5782 5781 5779 5777 5775 5773 5770 5768 5766
5781 5782 5783 5784 5784 5785 5786 5787 5788 5788 5789 5789 5789 5789 5789 5790 5790 5791 5791 5791 5791 5790 5790 5790 5790 5790 5789 5788 5787 5786 5785 5783 5781 5780 5778 5776 5774 5772 5770 5767 5765 5763
5780 5781 5782 5783 5783 5784 5785 5785 5786 5786 5787 5787 5787 5788 5788 5788 5788 5789 5789 5789 5788 5788 5788 5788 5788 5787 5787 5786 5784 5783 5781 5780 5778 5777 5775 5773 5771 5769 5767 5764 5762 5760
5779 5780 5781 5781 5782 5783 5783 5783 5784 5784 5785 5785 5786 5786 5786 5786 5787 5787 5787 5786 5786 5786 5786 5785 5785 5785 5784 5783 5781 5780 5778 5777 5775 5774 5772 5770 5768 5766 5764 5761 5759 5757
5778 5779 5779 5780 5780 5781 5781 5782 5782 5783 5783 5784 5784 5784 5785 5785 5785 5785 5785 5784 5784 5784 5783 5783 5782 5782 5781 5780 5778 5777 5775 5774 5773 5771 5769 5768 5765 5763 5761 5759 5757 5755
5776 5777 5778 5778 5778 5779 5779 5780 5780 5781 5781 5782 5782 5782 5783 5783 5783 5783 5782 5782 5782 5781 5781 5780 5780 5779 5778 5776 5775 5774 5772 5771 5770 5768 5767 5764 5762 5760 5758 5756 5754 5752
5774 5775 5775 5776 5776 5777 5777 5778 5779 5779 5779 5780 5780 5780 5780 5780 5780 5780 5780 5779 5779 5778 5778 5777 5777 5776 5775 5773 5772 5771 5769 5768 5767 5765 5763 5761 5759 5758 5756 5754 5752 5750
5772 5773 5773 5773 5774 5774 5775 5776 5776 5777 5777 5777 5777 5777 5777 5777 5777 5777 5777 5776 5776 5775 5775 5774 5773 5772 5771 5770 5769 5768 5766 5765 5764 5762 5760 5758 5757 5755 5753 5751 5750 5748
5770 5770 5770 5771 5771 5772 5773 5773 5774 5774 5774 5774 5774 5774 5774 5774 5774 5774 5773 5773 5773 5772 5771 5771 5770 5769 5768 5767 5766 5765 5763 5762 5760 5759 5757 5755 5754 5752 5750 5749 5747 5745
5767 5768 5768 5768 5768 5769 5770 5770 5771 5771 5771 5771 5771 5771 5771 5771 5770 5770 5770 5769 5769 5769 5768 5767 5767 5766 5765 5764 5763 5762 5760 5759 5757 5756 5754 5753 5751 5749 5748 5746 5744 5742
5764 5764 5764 5765 5765 5766 5766 5767 5767 5767 5767 5767 5767 5768 5767 5767 5767 5766 5766 5765 5765 5765 5764 5764 5763 5763 5762 5761 5760 5758 5757 5756 5754 5753 5751 5750 5748 5747 5745 5743 5742 5740
5761 5761 5761 5761 5761 5762 5763 5764 5764 5764 5763 5764 5764 5764 5764 5763 5763 5762 5762 5761 5761 5761 5761 5760 5760 5759 5758 5757 5756 5755 5754 5752 5751 5750 5749 5747 5745 5744 5742 5741 5739 5737
5757 5757 5757 5757 5758 5759 5760 5760 5760 5760 5760 5761 5761 5761 5760 5759 5759 5759 5758 5757 5757 5757 5757 5757 5756 5755 5755 5754 5753 5752 5751 5749 5748 5747 5746 5744 5743 5741 5740 5738 5736 5734
5753 5753 5753 5754 5755 5756 5757 5757 5757 5757 5757 5757 5757 5757 5756 5756 5754 5754 5753 5753 5753 5754 5753 5753 5753 5752 5751 5751 5750 5749 5748 5746 5745 5744 5743 5741 5740 5739 5737 5735 5734 5732
5750 5750 5750 5750 5751 5752 5753 5754 5754 5754 5753 5753 5753 5752 5752 5752 5750 5749 5749 5749 5750 5750 5750 5749 5749 5748 5748 5747 5746 5746 5745 5743 5742 5741 5740 5739 5737 5736 5734 5733 5731 5729
5746 5746 5747 5747 5748 5749 5750 5751 5750 5750 5749 5749 5749 5748 5748 5747 5746 5745 5746 5747 5747 5747 5746 5746 5746 5745 5744 5744 5743 5742 5742 5740 5739 5738 5737 5736 5735 5733 5732 5730 5728 5726